Location: Cheyres
(46.8153°N, 6.7877°E)
Time: 11:55:29
(UTC+00:00)

Gbstr 26 Del rocket - Pass Details

Date: 24 September 2021
Orbit: 492 x 1263 km, 51.8° (Epoch: 18 October)

Event Time Altitude Azimuth Distance (km) Brightness Sun altitude
Exits shadow 01:14:31 53° 73° (ENE) 1,450 4.9 -37.9°
Drops below altitude 10° 01:20:05 10° 98° (E) 2,979 6.8 -37.3°
Sets 01:22:40 0° 101° (E) 3,842 7.4 -37.0°
